Location: Newark
(47.7625°N, 12.7492°E)
Time: 19:54:33
(UTC+00:00)

ISS - Visible Passes

Search period start: 15 September 2019 00:00
Search period end: 25 September 2019 00:00
Orbit: 411 x 421 km, 51.6° (Epoch: 15 September)

Date Brightness Start Highest point End Pass type
(mag) Time Alt. Az. Time Alt. Az. Time Alt. Az.
15 Sep -2.1 03:32:38 18° SW 03:32:38 18° SW 03:34:47 10° S visible
19 Sep -2.3 18:37:09 10° SSW 18:39:16 22° SSE 18:39:16 22° SSE visible
20 Sep -1.9 17:49:34 10° S 17:51:32 15° SE 17:53:22 11° ESE visible
20 Sep -2.2 19:24:30 10° WSW 19:26:18 29° SW 19:26:18 29° SW visible
21 Sep -3.6 18:36:07 10° SW 18:39:21 51° SSE 18:40:10 39° ESE visible
21 Sep -0.5 20:12:53 10° W 20:13:05 11° W 20:13:05 11° W visible
22 Sep -2.9 17:47:54 10° SSW 17:50:56 33° SE 17:53:52 11° E visible
22 Sep -2.7 19:24:16 10° W 19:26:46 44° WNW 19:26:46 44° WNW visible
23 Sep -3.8 18:35:40 10° WSW 18:38:59 80° NNW 18:40:20 33° ENE visible
23 Sep -0.5 20:12:49 10° WNW 20:13:14 13° WNW 20:13:14 13° WNW visible
24 Sep -3.8 17:47:09 10° WSW 17:50:27 72° SSE 17:53:46 10° ENE visible
24 Sep -2.3 19:24:09 10° W 19:26:40 37° NW 19:26:40 37° NW visible
